FW9881 Weather Reports


Display with metric or nautical units.
time (UTC)temp
F
wind
direction
speed
MPH
gust
MPH
rain 1hr
in
rain 24hr
in
rain mn
in
humidity
%
barometer
mb
20260902220336 66 157 1.0 2.0 0.00 0.01 0.00 79 1024.0
20260902215335 66 157 0.0 3.0 0.00 0.01 0.00 80 1023.8
20260902214335 66 143 2.0 5.0 0.00 0.01 0.00 80 1023.9
20260902213334 66 135 2.0 3.0 0.00 0.01 0.00 80 1023.9
20260902213251 66 135 3.0 6.0 0.00 0.01 0.00 80 1023.9
20260902212235 67 135 0.0 1.0 0.00 0.01 0.00 79 1023.7
20260902211235 67 146 2.0 4.0 0.00 0.02 0.00 79 1023.7
20260902205233 67 135 0.0 0.0 0.00 0.02 0.00 81 1023.7
20260902204233 67 157 0.0 2.0 0.00 0.02 0.00 80 1023.5
20260902203236 68 157 0.0 5.0 0.00 0.02 0.00 80 1023.8
20260902201233 67 168 1.0 4.0 0.00 0.03 0.00 80 1024.0
20260902201135 67 135 0.0 0.0 0.00 0.03 0.00 80 1023.9
20260902200136 68 157 0.0 3.0 0.00 0.04 0.00 82 1023.8
20260902195233 67 135 1.0 2.0 0.00 0.04 0.00 82 1024.1
20260902194135 67 112 0.0 0.0 0.00 0.06 0.00 82 1024.0
20260902193134 68 130 4.0 7.0 0.00 0.06 0.00 83 1024.1
20260902192133 67 157 0.0 1.0 0.00 0.08 0.00 83 1024.3
20260902191133 67 144 3.0 4.0 0.00 0.09 0.00 84 1024.3
20260902190151 67 157 1.0 3.0 0.00 0.09 0.00 84 1024.6
20260902185233 67 180 0.0 0.0 0.00 0.09 0.00 82 1024.8
20260902184233 67 135 0.0 0.0 0.00 0.09 0.00 82 1024.6
20260902184133 67 135 0.0 1.0 0.00 0.09 0.00 83 1024.6
20260902183232 67 157 0.0 0.0 0.00 0.10 0.00 82 1024.6
20260902182234 67 157 0.0 2.0 0.00 0.10 0.00 83 1024.5
20260902181236 67 157 0.0 1.0 0.00 0.10 0.00 83 1024.5
20260902180333 66 157 2.0 5.0 0.00 0.10 0.00 83 1024.4
20260902174333 66 157 1.0 2.0 0.00 0.11 0.00 84 1024.8
20260902172349 66 157 1.0 3.0 0.00 0.11 0.00 85 1025.0
20260902171436 66 157 0.0 1.0 0.00 0.12 0.00 85 1024.9
20260902170533 66 157 0.0 1.0 0.00 0.12 0.00 84 1024.8
20260902170450 66 157 3.0 4.0 0.00 0.12 0.00 84 1024.8
20260902165535 66 157 1.0 2.0 0.00 0.12 0.00 84 1024.9
20260902164535 66 180 0.0 1.0 0.00 0.12 0.00 83 1025.1
20260902164433 66 180 2.0 3.0 0.00 0.12 0.00 84 1025.1
20260902163433 66 157 0.0 0.0 0.00 0.12 0.00 84 1025.0
20260902162335 66 180 0.0 2.0 0.00 0.13 0.00 85 1025.0
20260902161434 65 157 0.0 0.0 0.00 0.13 0.00 87 1025.2
20260902160533 65 157 1.0 3.0 0.00 0.13 0.00 86 1025.5
20260902155535 65 157 0.0 1.0 0.00 0.14 0.00 87 1025.8
20260902154451 65 157 1.0 3.0 0.00 0.14 0.00 87 1025.6
20260902153534 65 157 0.0 0.0 0.00 0.14 0.00 88 1025.8
20260902152535 65 157 1.0 5.0 0.00 0.14 0.00 88 1025.9
20260902151633 65 180 0.0 0.0 0.00 0.14 0.00 89 1026.1
20260902151537 65 180 0.0 0.0 0.00 0.14 0.00 88 1026.0
20260902150534 64 135 0.0 0.0 0.00 0.14 0.00 89 1025.9
20260902145533 64 180 0.0 0.0 0.00 0.14 0.00 89 1025.8
20260902144536 64 157 3.0 5.0 0.00 0.14 0.00 90 1025.9
20260902143536 65 135 0.0 1.0 0.00 0.14 0.00 88 1026.0
20260902142534 63 157 0.0 0.0 0.00 0.14 0.00 88 1025.9
20260902141536 63 157 1.0 2.0 0.00 0.14 0.00 87 1025.8
20260902135534 63 174 1.0 3.0 0.00 0.14 0.00 86 1025.6
20260902134536 62 157 0.0 0.0 0.00 0.14 0.00 85 1025.6
20260902132649 61 166 2.0 4.0 0.00 0.14 0.00 84 1025.2
20260902131633 61 161 4.0 8.0 0.00 0.14 0.00 83 1025.3
20260902130633 61 157 1.0 3.0 0.00 0.14 0.00 84 1025.5
20260902120734 60 157 0.0 0.0 0.00 0.25 0.00 84 1025.7
20260902115734 60 157 0.0 0.0 0.00 0.31 0.00 85 1025.7
20260902114734 59 157 0.0 0.0 0.00 0.34 0.00 85 1025.7
20260902113832 59 157 0.0 0.0 0.00 0.38 0.00 85 1025.7
20260902112835 59 157 0.0 0.0 0.00 0.44 0.00 85 1025.9
20260902105833 59 157 0.0 0.0 0.00 0.46 0.00 85 1025.6
20260902105749 59 157 0.0 0.0 0.00 0.46 0.00 85 1025.5
20260902104832 59 157 0.0 0.0 0.00 0.46 0.00 84 1025.4
20260902102835 59 157 0.0 0.0 0.00 0.46 0.00 85 1025.4
20260902101735 59 157 0.0 0.0 0.00 0.46 0.00 84 1025.1
20260902100733 59 157 0.0 0.0 0.00 0.46 0.00 85 1025.1
20260902095734 59 157 0.0 0.0 0.00 0.46 0.00 85 1025.1
20260902095631 59 157 0.0 0.0 0.00 0.46 0.00 84 1025.0
20260902094633 59 157 0.0 0.0 0.00 0.46 0.00 84 1025.2
20260902093633 59 157 0.0 0.0 0.00 0.46 0.00 85 1025.1
20260902092637 59 157 0.0 0.0 0.00 0.46 0.00 84 1024.9
20260902092535 59 157 0.0 0.0 0.00 0.46 0.00 84 1025.0
20260902085632 59 157 0.0 0.0 0.00 0.46 0.00 85 1024.6
20260902084632 59 157 0.0 0.0 0.00 0.46 0.00 85 1024.8
20260902084535 59 157 0.0 0.0 0.00 0.46 0.00 84 1024.7
20260902083631 59 157 0.0 0.0 0.00 0.46 0.00 84 1024.8
20260902081632 59 157 0.0 0.0 0.00 0.46 0.00 84 1024.7
20260902081535 59 157 0.0 0.0 0.00 0.46 0.00 84 1024.7
20260902080550 59 157 0.0 0.0 0.00 0.46 0.00 83 1024.7
20260902075531 60 157 0.0 0.0 0.00 0.46 0.00 83 1024.7
20260902074534 60 157 0.0 0.0 0.00 0.46 0.00 84 1024.8
20260902073533 60 157 0.0 0.0 0.00 0.46 0.00 84 1024.8
20260902073434 60 157 0.0 0.0 0.00 0.46 0.00 83 1024.8
20260902072434 60 157 0.0 0.0 0.00 0.46 0.00 83 1024.9
20260902070436 60 157 0.0 0.0 0.00 0.46 0.00 84 1025.0
20260902065450 60 157 0.0 0.0 0.00 0.46 0.00 84 1025.0
20260902064536 60 157 0.0 0.0 0.00 0.46 0.00 84 1024.8
20260902064449 60 157 0.0 0.0 0.00 0.46 0.00 83 1024.8
20260902063532 60 157 0.0 0.0 0.00 0.46 0.00 84 1024.7
20260902062533 60 157 0.0 0.0 0.00 0.46 0.00 84 1024.5
20260902062434 60 157 0.0 0.0 0.00 0.46 0.00 84 1024.4
20260902055435 60 157 0.0 0.0 0.00 0.46 0.00 84 1024.8
20260902054434 60 157 0.0 0.0 0.00 0.46 0.00 84 1024.5
20260902053433 60 157 0.0 0.0 0.00 0.46 0.00 84 1024.5
20260902052432 60 157 0.0 0.0 0.00 0.46 0.00 84 1024.5
20260902051432 60 157 0.0 0.0 0.00 0.46 0.00 83 1024.3
20260902050435 60 157 0.0 0.0 0.00 0.46 0.00 84 1024.3
20260902045533 60 157 0.0 0.0 0.00 0.46 0.00 84 1024.1
20260902044532 60 157 0.0 0.0 0.00 0.46 0.00 84 1023.9
20260902043535 60 157 0.0 0.0 0.00 0.46 0.00 83 1023.8
20260902043449 60 157 0.0 0.0 0.00 0.46 0.00 83 1023.9
20260902042435 60 157 0.0 0.0 0.00 0.46 0.00 84 1023.7
20260902041434 60 157 0.0 0.0 0.00 0.46 0.00 84 1023.6
20260902040532 60 157 0.0 0.0 0.00 0.46 0.00 83 1023.5
20260902033636 60 157 0.0 0.0 0.00 0.46 0.46 83 1023.2
20260902033541 60 157 0.0 0.0 0.00 0.46 0.46 84 1023.1
20260902032553 60 157 0.0 0.0 0.00 0.46 0.46 84 1023.1
20260902032439 60 157 0.0 0.0 0.00 0.46 0.46 84 1023.2
20260902031538 60 157 0.0 0.0 0.00 0.46 0.46 83 1023.2
20260902030538 60 157 0.0 0.0 0.00 0.46 0.46 83 1022.9
20260902025539 60 157 0.0 0.0 0.00 0.46 0.46 84 1023.1
20260902024538 60 157 0.0 0.0 0.00 0.46 0.46 84 1023.3
20260902023540 60 157 0.0 0.0 0.00 0.46 0.46 84 1023.3
20260902022636 60 157 0.0 0.0 0.00 0.46 0.46 84 1023.5
20260902021640 60 157 0.0 0.0 0.00 0.46 0.46 84 1023.3
20260902020638 60 157 0.0 0.0 0.00 0.46 0.46 83 1023.2
20260902015639 60 157 0.0 0.0 0.00 0.46 0.46 83 1023.3
20260902013737 60 157 0.0 0.0 0.00 0.46 0.46 83 1023.3
20260902012837 60 157 0.0 0.0 0.00 0.46 0.46 83 1023.4
20260902011838 60 157 0.0 0.0 0.00 0.46 0.46 84 1023.4
20260902011736 60 157 0.0 0.0 0.00 0.46 0.46 84 1023.4
20260902010737 60 157 0.0 0.0 0.00 0.46 0.46 84 1023.3
20260902005737 60 157 0.0 0.0 0.00 0.46 0.46 84 1023.2
20260902004738 60 157 0.0 0.0 0.00 0.46 0.46 84 1023.1
20260902003837 60 157 0.0 0.0 0.00 0.46 0.46 84 1023.1
20260902001036 60 157 1.0 3.0 0.01 0.46 0.46 84 1022.8
20260902000937 60 157 0.0 0.0 0.01 0.46 0.46 84 1022.7
20260901235937 60 112 0.0 0.0 0.01 0.46 0.46 84 1022.5
20260901234939 61 202 0.0 0.0 0.01 0.46 0.46 84 1022.6
20260901233936 61 157 0.0 1.0 0.01 0.46 0.46 84 1022.5
20260901230938 62 112 0.0 0.0 0.00 0.45 0.45 83 1022.5
20260901230036 62 112 0.0 0.0 0.00 0.45 0.45 84 1022.4
20260901225056 62 112 0.0 0.0 0.00 0.45 0.45 84 1022.4
20260901224136 62 112 0.0 0.0 0.00 0.45 0.45 84 1022.2
20260901223137 62 112 0.0 0.0 0.00 0.45 0.45 84 1022.3
20260901222140 62 112 0.0 0.0 0.00 0.45 0.45 84 1022.2
20260901221138 62 112 0.0 0.0 0.01 0.45 0.45 83 1022.1
20260901221038 62 112 0.0 0.0 0.01 0.45 0.45 84 1022.0